Regional Weather Roundup
Issued by NWS

Home | Current Version | Previous Version | Graphics & Text | Print | Product List | Glossary On
Versions: 1 2 3 4 5 6 7 8 9 10 11 12 13 14 15 16 17 18 19 20 21 22 23 24 25 26 27 28 29 30 31 32 33 34 35 36 37 38 39 40 41 42 43 44 45 46 47 48 49 50
000
ASUS43 KMKX 250821
RWRWI

WISCONSIN REGIONAL WEATHER ROUNDUP
NATIONAL WEATHER SERVICE MILWAUKEE/SULLIVAN WI
300 AM CDT SAT APR 25 2015

NOTE: "FAIR" INDICATES FEW OR NO CLOUDS BELOW 12,000 FEET WITH NO
SIGNIFICANT WEATHER AND/OR OBSTRUCTIONS TO VISIBILITY.

WIZ001-002-006>008-014>016-023>028-250900-
NORTHWEST WISCONSIN

CITY           SKY/WX    TMP DP  RH WIND       PRES   REMARKS
SUPERIOR ARPT  CLOUDY    35  31  87 NE10G18   29.94S WCI  27
ASHLAND        CLOUDY    37  32  82 N8        29.94S WCI  31
HAYWARD        CLOUDY    43  32  65 E3        29.89R
SIREN          CLOUDY    44  31  59 E5        29.86F
CUMBERLAND     CLOUDY    41  32  70 SE8       29.86S
RICE LAKE      CLOUDY    42  33  69 E10       29.88S
CHETEK         CLOUDY    41  34  74 E10G17    29.87F
LADYSMITH      CLOUDY    42  32  69 E6        29.90F
EAU CLAIRE     CLOUDY    42  35  76 E10       29.86S
MENOMONIE      CLOUDY    42  36  78 E12       29.86R
NEW RICHMOND   CLOUDY    42  35  76 E12G20    29.83S
OSCEOLA        CLOUDY    44  36  72 E15       29.86S
$$

WIZ003>005-009-010-017-018-250900-
NORTH CENTRAL WISCONSIN

CITY           SKY/WX    TMP DP  RH WIND       PRES   REMARKS
MANITOWISH WTR CLOUDY    39  29  67 SE6       29.91S WCI  34
ARBOR VITAE    CLOUDY    39  28  63 SE7       29.91S WCI  34
WOODRUFF       CLOUDY    39  28  63 SE7       29.91S WCI  34
RHINELANDER    CLOUDY    37  22  54 E10       29.92F WCI  30
EAGLE RIVER    CLOUDY    36  22  57 SE6       29.92S WCI  32
LAND O LAKES   CLOUDY    37  29  72 SE5       29.94R WCI  34
PHILLIPS       CLOUDY    37  27  66 E3        29.90S
TOMAHAWK       CLOUDY    38  23  55 CALM      29.91F
MEDFORD        CLOUDY    38  28  69 E7        29.89S WCI  32
MERRILL        CLOUDY    38  23  54 E7        29.91S WCI  33
$$

WIZ029-030-035-036-043>047-250900-
CENTRAL WISCONSIN

CITY           SKY/WX    TMP DP  RH WIND       PRES   REMARKS
WAUSAU         CLOUDY    38  25  59 E10       29.89F WCI  31
MOSINEE        CLOUDY    36  27  69 E9        29.90F WCI  29
MARSHFIELD     CLOUDY    38  34  85 E10       29.88F WCI  31
STEVENS POINT  CLOUDY    35  29  80 E7        29.90F WCI  29
WAUPACA        CLOUDY    39  34  80 NE5       29.92S
WAUTOMA        MOCLDY    37  37 100 NE7       29.91F WCI  31
WISC RAPIDS    CLOUDY    37  33  85 E8        29.90F WCI  31
CAMP DOUGLAS   CLOUDY    39  39 100 E13G20    29.86S WCI  32
$$

WIZ011>013-019>022-031-037>040-048>050-250900-
NORTHEAST WISCONSIN

CITY           SKY/WX    TMP DP  RH WIND       PRES   REMARKS
ANTIGO         CLOUDY    35  21  56 E7        29.92S WCI  29
SHAWANO        CLOUDY    41  26  55 E8        29.94F
OCONTO         CLOUDY    38  21  50 E6        29.96F WCI  34
STURGEON BAY   CLOUDY    37  21  52 E6        29.98F WCI  33
GREEN BAY      CLOUDY    41  23  48 NE7       29.93F
MANITOWOC      CLOUDY    39  29  67 NE3       29.93F
APPLETON       CLOUDY    37  30  75 E7        29.91F WCI  32
CLINTONVILLE   CLOUDY    37  23  56 NE5       29.92F WCI  34
OSHKOSH        CLOUDY    40  34  79 E13       29.90F WCI  32
$$

WIZ032>034-041-042-053>061-250900-
SOUTHWEST WISCONSIN

CITY           SKY/WX    TMP DP  RH WIND       PRES   REMARKS
LA CROSSE      CLOUDY    43  35  73 E7        29.84S
SPARTA         CLOUDY    40  36  86 E10       29.86S WCI  33
VIROQUA        CLOUDY    38  36  91 E17       29.81S WCI  29
BOSCOBEL       CLOUDY    42  35  76 NE7       29.83S
PRAIRIE DU CHI CLOUDY    42  33  71 E17G23    29.79S
PLATTEVILLE    CLOUDY    40  36  83 E20G25    29.78F WCI  31
$$

WIZ056-057-062-063-064-067-068-250900-
SOUTH CENTRAL WISCONSIN

CITY           SKY/WX    TMP DP  RH WIND       PRES   REMARKS
REEDSBURG      CLOUDY    38  35  89 E8        29.86R WCI  32
BARABOO/DELLS  CLOUDY    37  34  87 E9        29.86S WCI  31
LONE ROCK      CLOUDY    41  34  76 E17       29.84S
MINERAL POINT  CLOUDY    41  36  81 E15       29.80S
MADISON        CLOUDY    40  32  73 MISG      29.86F
MIDDLETON      CLOUDY    41  33  72 E12G20    29.85S
WATERTOWN      CLOUDY    38  35  87 E10       29.86F WCI  32
MONROE         CLOUDY    37  36  93 E17G23    29.81F WCI  28
JANESVILLE     CLOUDY    41  34  75 E13       29.84R
$$

WIZ051-052-058>065-066-070>072-250900-
SOUTHEAST WISCONSIN

CITY           SKY/WX    TMP DP  RH WIND       PRES   REMARKS
MILWAUKEE      CLOUDY    39  33  79 E12       29.89F WCI  32
WAUKESHA       CLOUDY    36  32  87 E9        29.89F WCI  29
MILWAUKEE/TIMM CLOUDY    37  32  81 NE5       29.89F WCI  34
RACINE         CLOUDY    40  35  83 E16G24    29.88F WCI  31
BURLINGTON     CLOUDY    38  33  82 E8        29.87F WCI  32
KENOSHA        CLOUDY    40  36  86 E16       29.87F WCI  31
FOND DU LAC    CLOUDY    39  33  79 E9        29.89F WCI  33
SHEBOYGAN      CLOUDY    39  34  82 E7        29.91F WCI  34
WEST BEND      CLOUDY    37  32  81 E8        29.88F WCI  31
JUNEAU         CLOUDY    38  33  81 E10       29.88F WCI  31
$$

LSZ147-162-250900-
LAKE SUPERIOR

STATION/POSITION TIME  TEMP    WIND        PRES    WAVE
                       AIR SEA DIR/SP/G            HT/PER
                 (UTC) (F)     (DEG/KT/KT) (MB)    (FT/S)
W MID LAKE BUOY  0750   34 34   60/ 17/ 19 1016.8S   2/ 4
DEVILS ISLAND    0800   35      60/ 19/ 20 1015.3F
PORT WING        0700   38      40/ 14/ 16 1013.5
SAXON HARBOR     0700   38        CALM     1013.2F
$$

LMZ867-665-643>646-250900-
LAKE MICHIGAN

STATION/POSITION TIME  TEMP    WIND        PRES    WAVE
                       AIR SEA DIR/SP/G            HT/PER
                 (UTC) (F)     (DEG/KT/KT) (MB)    (FT/S)
CHAMBERS ISLAND  0700   38      20/  4/  5 1015.9F
NORTHPORT PIER   0800   36      90/ 11/ 14 1015.6F
SISTER BAY       0647   39     120/  9/ 14   N/A
KEWAUNEE LAKESHO 0700   39      50/  7/  9 1014.1F
SHEBOYGAN LAKESH 0800   39      80/  5/  6 1013.8F
PORT WASHINGTON  0700   40      40/ 10/ 12 1014.6
MILWAUKEE LAKESH 0800   39      40/  7/  8   N/A
KENOSHA   LAKESH 0800   40     100/ 18/ 22 1011.5F
$$

TC  - TEMPERATURE IN CELSIUS
VSB - VISIBILITY IN STATUTE MILES
WCI - WIND CHILL INDEX
HX  - HEAT INDEX



USA.gov is the U.S. government's official web portal to all federal, state and local government web resources and services.